Change the Weather History Date:

Tuesday, October 16, 2012

  Actual Average Record
Temperature  
Mean Temperature 29 °F -  
Max Temperature 32 °F 42 °F 54 °F (1972)
Min Temperature 26 °F 28 °F 3 °F (1996)
Degree Days  
Heating Degree Days 36    
Moisture  
Dew Point 26 °F    
Average Humidity 89    
Maximum Humidity 93    
Minimum Humidity 80    
Precipitation  
Precipitation 0.02 in - - ()
Sea Level Pressure  
Sea Level Pressure 29.27 in    
Wind  
Wind Speed 4 mph (ENE)    
Max Wind Speed 9 mph    
Max Gust Speed -    
Visibility 6 miles    
Events      
Averages and records for this station are not official NWS values.
T = Trace of Precipitation, MM = Missing Value Source: NWS Daily Summary

Daily Weather History Graph

Daily Weather History Graph

Search for Another Location

Airport or City:

Trip Planner

Search our weather history database for the weather conditions in past years. The results will help you decide how hot, cold, wet, or windy it might be!

Date:

Astronomy

Oct. 16, 2012 Rise Set
Actual Time 8:48 AM AKDT 6:48 PM AKDT
Civil Twilight 8:05 AM AKDT 7:31 PM AKDT
Nautical Twilight 7:16 AM AKDT 8:20 PM AKDT
Astronomical Twilight 6:27 AM AKDT 9:09 PM AKDT
Moon 11:04 AM AKDT (10/16) 6:57 PM AKDT (10/16)
Length of Visible Light 11h 26m
Length of Day
9h 59m
Waxing Crescent, 3% of the Moon is Illuminated
Oct 16
Waxing Crescent
Oct 21
First Quarter
Oct 29
Full
Nov 6
Last Quarter
Nov 13
New

Hourly Weather History & Observations

Time (AKDT) Temp. Windchill Dew Point Humidity Pressure Visibility Wind Dir Wind Speed Gust Speed Precip Events Conditions
12:16 AM 32.0 °F - 28.4 °F 87% 29.10 in 10.0 mi Calm Calm - N/A   Overcast
12:36 AM 30.2 °F - 28.4 °F 93% 29.10 in 5.0 mi Calm Calm - N/A   Overcast
12:56 AM 30.2 °F 25.4 °F 28.4 °F 93% 29.11 in 6.0 mi ESE 4.6 mph - N/A   Overcast
1:16 AM 30.2 °F 24.3 °F 28.4 °F 93% 29.11 in 5.0 mi ESE 5.8 mph - N/A   Overcast
1:36 AM 30.2 °F 24.3 °F 28.4 °F 93% 29.12 in 7.0 mi ESE 5.8 mph - N/A   Overcast
1:56 AM 30.2 °F 25.4 °F 26.6 °F 86% 29.12 in 10.0 mi ESE 4.6 mph - N/A   Overcast
2:16 AM 30.2 °F 24.3 °F 26.6 °F 86% 29.12 in 9.0 mi ESE 5.8 mph - N/A   Mostly Cloudy
2:36 AM 30.2 °F 25.4 °F 26.6 °F 86% 29.13 in 10.0 mi East 4.6 mph - N/A   Overcast
2:56 AM 30.2 °F 25.4 °F 28.4 °F 93% 29.13 in 10.0 mi East 4.6 mph - N/A   Overcast
3:16 AM 30.2 °F 22.6 °F 26.6 °F 86% 29.13 in 10.0 mi East 8.1 mph - N/A   Overcast
3:36 AM 30.2 °F 22.6 °F 26.6 °F 86% 29.14 in 10.0 mi East 8.1 mph - N/A   Overcast
3:56 AM 30.2 °F 24.3 °F 26.6 °F 86% 29.14 in 4.0 mi ESE 5.8 mph - N/A   Overcast
4:16 AM 28.4 °F 22.2 °F 26.6 °F 93% 29.15 in 2.5 mi East 5.8 mph - N/A   Overcast
4:36 AM 28.4 °F 22.2 °F 26.6 °F 93% 29.15 in 4.0 mi ESE 5.8 mph - N/A   Mostly Cloudy
4:56 AM 28.4 °F 23.3 °F 26.6 °F 93% 29.15 in 2.0 mi East 4.6 mph - N/A   Overcast
5:16 AM 28.4 °F 23.3 °F 26.6 °F 93% 29.16 in 2.0 mi ENE 4.6 mph - N/A   Overcast
5:36 AM 28.4 °F 20.4 °F 26.6 °F 93% 29.16 in 2.0 mi East 8.1 mph - N/A   Overcast
5:56 AM 28.4 °F 23.3 °F 26.6 °F 93% 29.16 in 2.5 mi ENE 4.6 mph - N/A   Overcast
6:16 AM 28.4 °F 23.3 °F 24.8 °F 86% 29.17 in 3.0 mi ENE 4.6 mph - N/A   Overcast
6:36 AM 28.4 °F 22.2 °F 24.8 °F 86% 29.17 in 5.0 mi East 5.8 mph - N/A   Overcast
6:56 AM 28.4 °F 22.2 °F 24.8 °F 86% 29.17 in 4.0 mi ENE 5.8 mph - N/A   Overcast
7:16 AM 28.4 °F 23.3 °F 24.8 °F 86% 29.18 in 5.0 mi East 4.6 mph - N/A   Overcast
7:36 AM 28.4 °F 22.2 °F 24.8 °F 86% 29.18 in 4.0 mi East 5.8 mph - N/A   Overcast
7:56 AM 26.6 °F 20.0 °F 24.8 °F 93% 29.19 in 7.0 mi East 5.8 mph - N/A   Overcast
8:16 AM 26.6 °F 19.1 °F 24.8 °F 93% 29.19 in 9.0 mi East 6.9 mph - N/A   Overcast
8:36 AM 26.6 °F 20.0 °F 23.0 °F 86% 29.20 in 5.0 mi East 5.8 mph - N/A   Overcast
8:56 AM 26.6 °F - 24.8 °F 93% 29.20 in 5.0 mi Calm Calm - N/A   Overcast
9:16 AM 26.6 °F 22.6 °F 24.8 °F 93% 29.21 in 5.0 mi East 3.5 mph - N/A   Overcast
9:36 AM 26.6 °F 22.6 °F 24.8 °F 93% 29.22 in 2.5 mi East 3.5 mph - N/A   Overcast
9:56 AM 26.6 °F 20.0 °F 24.8 °F 93% 29.22 in 2.5 mi ENE 5.8 mph - N/A   Overcast
10:16 AM 26.6 °F 18.2 °F 24.8 °F 93% 29.23 in 3.0 mi East 8.1 mph - N/A   Overcast
10:36 AM 26.6 °F 21.2 °F 23.0 °F 86% 29.23 in 1.5 mi East 4.6 mph - N/A   Overcast
10:56 AM 26.6 °F 20.0 °F 24.8 °F 93% 29.24 in 2.5 mi East 5.8 mph - N/A   Overcast
11:16 AM 26.6 °F 20.0 °F 23.0 °F 86% 29.25 in 8.0 mi East 5.8 mph - N/A   Overcast
11:36 AM 28.4 °F 21.2 °F 23.0 °F 80% 29.26 in 7.0 mi East 6.9 mph - N/A   Overcast
11:56 AM 28.4 °F 24.6 °F 24.8 °F 86% 29.27 in 3.0 mi ENE 3.5 mph - N/A   Overcast
12:16 PM 28.4 °F - 24.8 °F 86% 29.27 in 2.5 mi Calm Calm - N/A   Overcast
12:36 PM 28.4 °F - 24.8 °F 86% 29.27 in - Calm Calm - N/A   Overcast
12:56 PM 28.4 °F - 24.8 °F 86% 29.28 in - Calm Calm - N/A   Overcast
1:16 PM 28.4 °F 23.3 °F 24.8 °F 86% 29.28 in - NNE 4.6 mph - N/A   Unknown
1:36 PM 30.2 °F 26.7 °F 24.8 °F 80% 29.29 in - North 3.5 mph - N/A   Overcast
1:56 PM 30.2 °F - 24.8 °F 80% 29.29 in 9.0 mi Calm Calm - N/A   Overcast
2:16 PM 30.2 °F 26.7 °F 26.6 °F 86% 29.29 in 3.0 mi NNW 3.5 mph - N/A   Overcast
2:36 PM 30.2 °F - 26.6 °F 86% 29.29 in 2.5 mi Calm Calm - N/A   Overcast
2:56 PM 30.2 °F 26.7 °F 26.6 °F 86% 29.30 in 5.0 mi ENE 3.5 mph - N/A   Overcast
3:16 PM 30.2 °F 25.4 °F 26.6 °F 86% 29.30 in 2.5 mi NNW 4.6 mph - N/A   Overcast
3:36 PM 30.2 °F - 26.6 °F 86% 29.30 in - Calm Calm - N/A   Unknown
3:56 PM 30.2 °F 24.3 °F 26.6 °F 86% 29.30 in - NNW 5.8 mph - N/A   Unknown
4:16 PM 30.2 °F 24.3 °F 28.4 °F 93% 29.31 in 10.0 mi NE 5.8 mph - N/A   Overcast
4:36 PM 30.2 °F 26.7 °F 24.8 °F 80% 29.32 in 10.0 mi NNE 3.5 mph - N/A   Overcast
4:56 PM 30.2 °F 24.3 °F 26.6 °F 86% 29.32 in 10.0 mi East 5.8 mph - N/A   Overcast
5:16 PM 30.2 °F 21.9 °F 24.8 °F 80% 29.33 in 1.2 mi ENE 9.2 mph - N/A   Overcast
5:36 PM 30.2 °F 26.7 °F 24.8 °F 80% 29.34 in 5.0 mi ENE 3.5 mph - N/A   Overcast
5:56 PM 28.4 °F 24.6 °F 26.6 °F 93% 29.35 in 1.2 mi East 3.5 mph - N/A   Overcast
6:16 PM 28.4 °F - 26.6 °F 93% 29.35 in 0.5 mi Calm Calm - N/A   Overcast
6:36 PM 28.4 °F - 26.6 °F 93% 29.36 in 1.0 mi Calm Calm - N/A   Overcast
6:56 PM 28.4 °F - 26.6 °F 93% 29.37 in - Calm Calm - N/A   Unknown
7:16 PM 28.4 °F 24.6 °F 26.6 °F 93% 29.38 in - North 3.5 mph - N/A   Unknown
7:36 PM 28.4 °F 23.3 °F 26.6 °F 93% 29.40 in - ENE 4.6 mph - N/A   Overcast
7:56 PM 28.4 °F 24.6 °F 26.6 °F 93% 29.40 in 1.0 mi NE 3.5 mph - 0.01 in   Overcast
8:16 PM 28.4 °F 24.6 °F 26.6 °F 93% 29.41 in 1.2 mi North 3.5 mph - 0.01 in   Overcast
8:36 PM 28.4 °F - 26.6 °F 93% 29.42 in 4.0 mi Calm Calm - 0.01 in   Overcast
8:56 PM 28.4 °F - 26.6 °F 93% 29.44 in - Calm Calm - 0.01 in   Unknown
9:16 PM 28.4 °F 24.6 °F 26.6 °F 93% 29.44 in - NNW 3.5 mph - N/A   Unknown
9:36 PM 28.4 °F - 26.6 °F 93% 29.45 in - Calm Calm - N/A   Overcast
9:56 PM 30.2 °F - 26.6 °F 86% 29.46 in 8.0 mi Calm Calm - N/A   Overcast
10:16 PM 30.2 °F 23.4 °F 26.6 °F 86% 29.47 in 10.0 mi NNE 6.9 mph - N/A   Overcast
10:36 PM 30.2 °F 24.3 °F 26.6 °F 86% 29.48 in 10.0 mi NE 5.8 mph - N/A   Overcast
10:56 PM 30.2 °F 26.7 °F 26.6 °F 86% 29.49 in 10.0 mi NE 3.5 mph - N/A   Overcast
11:16 PM 30.2 °F 24.3 °F 26.6 °F 86% 29.50 in 10.0 mi NE 5.8 mph - N/A   Overcast
11:36 PM 30.2 °F 23.4 °F 26.6 °F 86% 29.51 in 10.0 mi NNE 6.9 mph - N/A   Overcast
11:56 PM 30.2 °F 24.3 °F 26.6 °F 86% 29.52 in 10.0 mi NE 5.8 mph - N/A   Overcast